This is the latest recevied weather packets stored in our database for station/object DO7CRZ-11. If no packets are shown the sender has not sent any weather packets the latest 10 day(s).
| Time | Temp. | Humidity | Pressure | Rain* | Wind** | Luminosity | Snow |
|---|---|---|---|---|---|---|---|
| 1778079728 | 22.22° C | 55% | 1005.9 hPa | 0 mm | - | 317 W/m² | - |
| 1778079131 | 22.78° C | 54% | 1006 hPa | 0 mm | - | 405 W/m² | - |
| 1778078534 | 22.22° C | 54% | 1005.9 hPa | 0 mm | - | 463 W/m² | - |
| 1778077928 | 22.22° C | 55% | 1006.1 hPa | 0 mm | - | 299 W/m² | - |
| 1778076127 | 21.67° C | 57% | 1006.2 hPa | 0 mm | - | 424 W/m² | - |
| 1778075531 | 21.11° C | 58% | 1006.1 hPa | 0 mm | - | 577 W/m² | - |
| 1778074934 | 21.11° C | 58% | 1006.3 hPa | 0 mm | - | 281 W/m² | - |
| 1778074327 | 21.67° C | 56% | 1006.2 hPa | 0 mm | - | 192 W/m² | - |
| 1778073733 | 21.67° C | 54% | 1006.2 hPa | 0 mm | - | 449 W/m² | - |
| 1778072527 | 21.67° C | 56% | 1006.2 hPa | 0 mm | - | 565 W/m² | - |
| 1778071931 | 21.11° C | 57% | 1006.2 hPa | 0 mm | - | 416 W/m² | - |
| 1778071339 | 21.11° C | 56% | 1006.4 hPa | 0 mm | - | 340 W/m² | - |
| 1778070729 | 21.11° C | 62% | 1006.4 hPa | 0 mm | - | 781 W/m² | - |
| 1778070131 | 20° C | 63% | 1006.4 hPa | 0 mm | - | 630 W/m² | - |
| 1778069534 | 18.89° C | 64% | 1006.4 hPa | 0 mm | - | 403 W/m² | - |
| 1778068929 | 18.89° C | 64% | 1006.4 hPa | 0 mm | - | 157 W/m² | - |
| 1778068330 | 18.89° C | 65% | 1006.5 hPa | 0 mm | - | 282 W/m² | - |
| 1778067733 | 18.33° C | 63% | 1006.4 hPa | 0 mm | - | 211 W/m² | - |
| 1778067126 | 18.89° C | 63% | 1006.4 hPa | 0 mm | - | 70 W/m² | - |
| 1778065933 | 19.44° C | 64% | 1006.3 hPa | 0 mm | - | 161 W/m² | - |
| 1778064729 | 20° C | 63% | 1006.3 hPa | 0 mm | - | 661 W/m² | - |
| 1778064132 | 20° C | 63% | 1006.3 hPa | 0 mm | - | 436 W/m² | - |
| 1778063536 | 19.44° C | 67% | 1006.3 hPa | 0 mm | - | 640 W/m² | - |
| 1778062929 | 18.89° C | 67% | 1006.4 hPa | 0 mm | - | 513 W/m² | - |
| 1778062332 | 18.89° C | 68% | 1006.4 hPa | 0 mm | - | 224 W/m² | - |
* Rain latest hour (hover to see other rain measurements)
** Current wind speed in m/s (hover to see current wind gust speed)